Temperature
8 8 8 8 8 8 8 8 9 10 11 12 13 13 12 11 10 9 9 8 8 9 9 9 9 9 9 8 8 7 7 7 6 6 6 5 5 5 4 4 4 4 4 4
7 8 8 8 8 8 8 9 9 10 10 12 12 11 11 10 10 9 9 9 9 9 9 9 9 9 9 8 8 7 6 6 5 5 5 4 4 3 3 3 3 3 3 3
8 8 7 8 9 9 9 9 9 9 11 12 11 11 10 10 9 9 9 9 9 9 9 10 9 9 9 8 7 7 6 5 5 4 4 4 3 3 2 2 2 2 2 2
7 7 6 10 9 9 9 9 9 9 10 11 10 10 9 9 9 9 9 9 9 9 9 9 9 9 8 8 7 6 6 5 4 4 3 3 2 2 1 1 1 1 1 1
6 7 8 9 9 8 8 9 10 9 10 9 8 8 9 8 8 9 9 9 9 9 9 9 9 9 8 7 7 6 5 5 4 3 3 2 2 1 1 1 0 0 0 0
6 6 7 9 9 7 8 9 9 9 9 8 7 9 10 8 8 8 9 9 9 9 9 9 9 8 8 7 6 6 5 4 3 3 2 2 1 1 0 -0 -0 -0 -0 -0
6 6 8 9 7 7 8 9 9 8 8 7 8 9 8 8 8 8 8 8 8 8 8 8 8 8 7 7 6 5 4 3 3 2 2 1 0 0 -0 -1 -1 -1 -1 -1
6 6 7 8 7 8 9 8 7 7 7 7 7 7 7 7 8 8 8 8 8 8 8 8 8 7 7 6 6 4 4 3 2 2 1 1 -0 -0 -1 -1 -1 -1 -1 -1
7 8 8 7 7 7 6 6 7 7 7 7 7 7 7 7 7 7 7 7 7 7 7 7 7 7 6 5 5 4 3 2 2 1 1 0 -0 -1 -1 -1 -1 -1 -1 -1
6 7 7 6 6 6 6 6 6 6 6 6 6 7 7 7 7 7 7 7 7 7 7 7 6 6 5 4 4 3 3 2 1 1 0 -0 -1 -1 -1 -1 -1 -1 -1 -1
5 6 6 6 6 5 5 5 6 6 6 6 6 6 6 7 7 7 7 6 6 6 6 6 5 5 4 4 3 3 2 1 1 0 -0 -0 -1 -1 -1 -0 -1 -1 -1 -1
5 5 5 5 4 4 4 5 5 5 5 6 6 6 6 6 6 6 6 6 6 6 5 5 5 4 4 3 3 2 2 1 1 0 -0 -0 -0 -1 -1 -1 -1 -1 -1 -1
3 3 3 3 3 4 4 4 4 4 5 5 5 5 5 5 5 5 5 5 5 5 5 4 4 4 3 3 2 2 1 1 1 0 -0 -0 -0 -0 -1 -1 -1 -1 -1 -1
2 2 2 3 3 3 3 3 4 4 4 4 5 5 5 5 5 5 5 5 4 4 4 4 3 3 3 2 2 1 1 1 0 0 0 -0 -0 -1 -1 -1 -1 -1 -1 -1
1 1 2 2 2 2 2 3 3 3 4 4 4 4 4 4 4 4 4 4 4 4 3 3 3 3 2 2 2 1 1 1 0 0 -0 -0 -1 -1 -1 -1 -1 -1 -1 -1
1 1 1 1 2 2 2 2 2 3 3 3 3 3 3 3 3 3 3 3 3 3 3 3 3 2 2 2 1 1 1 0 0 0 -0 -0 -1 -1 -1 -1 -1 -1 -1 -1
0 0 1 1 1 1 2 2 2 2 2 2 3 3 3 3 3 3 3 2 2 2 2 2 2 2 1 1 1 1 0 0 -0 -0 -0 -1 -1 -1 -1 -1 -1 -1 -1 -1
-0 -0 0 0 0 1 1 1 1 1 2 2 2 2 2 2 2 2 2 2 2 2 1 1 1 1 1 1 0 0 -0 -0 -0 -0 -1 -1 -1 -1 -1 -1 -1 -1 -1 -1
-0 -0 -0 0 0 0 1 1 1 1 1 1 1 1 1 1 1 1 1 1 1 1 1 1 0 0 0 0 -0 -0 -0 -1 -1 -1 -1 -1 -1 -2 -2 -2 -1 -1 -1 -1
-1 -1 -0 -0 -0 -0 -0 -0 -0 -0 0 0 0 0 0 0 0 0 0 0 0 0 0 -0 -0 -0 -0 -0 -0 -1 -1 -1 -1 -1 -1 -1 -2 -2 -2 -2 -2 -2 -2 -2
-1 -1 -1 -1 -1 -1 -1 -1 -1 -1 -1 -1 -0 -0 -0 -0 -0 -0 -0 -1 -1 -1 -1 -1 -1 -1 -1 -1 -1 -1 -1 -1 -2 -2 -2 -2 -2 -2 -2 -2 -2 -2 -2 -2
-1 -1 -1 -1 -1 -1 -1 -1 -2 -1 -1 -1 -1 -1 -1 -1 -1 -1 -1 -1 -1 -1 -1 -1 -1 -1 -1 -2 -2 -2 -2 -2 -2 -2 -2 -2 -3 -3 -3 -3 -3 -3 -3 -3
-1 -1 -2 -2 -2 -2 -2 -2 -2 -2 -1 -1 -1 -1 -1 -1 -1 -1 -1 -1 -2 -2 -2 -2 -2 -2 -2 -2 -2 -2 -2 -2 -2 -3 -3 -3 -3 -3 -3 -3 -3 -3 -3 -3
-2 -2 -2 -2 -2 -2 -2 -2 -2 -2 -2 -2 -2 -2 -2 -2 -2 -2 -2 -2 -2 -2 -2 -2 -2 -2 -2 -3 -3 -3 -3 -3 -3 -3 -3 -3 -4 -4 -4 -4 -4 -4 -4 -4
-2 -2 -2 -2 -2 -2 -2 -2 -2 -2 -2 -2 -2 -2 -2 -2 -2 -2 -2 -2 -3 -3 -3 -3 -3 -3 -3 -3 -3 -3 -3 -4 -4 -4 -4 -4 -4 -4 -4 -5 -5 -5 -5 -5
-2 -2 -2 -2 -2 -2 -2 -2 -2 -2 -2 -2 -2 -2 -2 -3 -3 -3 -3 -3 -3 -3 -3 -3 -3 -3 -4 -4 -4 -4 -4 -4 -4 -4 -5 -5 -5 -5 -5 -5 -5 -5 -5 -6
-2 -2 -2 -2 -2 -2 -2 -2 -2 -2 -3 -3 -3 -3 -3 -3 -3 -3 -3 -3 -3 -4 -4 -4 -4 -4 -4 -4 -4 -5 -5 -5 -5 -5 -5 -5 -5 -6 -6 -6 -6 -6 -6 -6
Wind_Speed
8 7 6 9 11 14 16 15 13 15 18 18 15 14 13 11 10 9 9 10 12 13 13 12 11 11 10 9 9 9 8 7 6 5 5 5 4 4 4 4 3 4 4 4
7 8 9 12 15 16 18 18 20 21 22 18 16 14 14 14 12 12 12 13 13 14 14 14 13 12 11 11 10 10 9 8 7 7 6 6 5 5 5 4 4 4 4 4
6 5 6 12 14 17 15 15 15 19 20 16 15 14 14 14 13 13 13 13 14 14 15 14 14 13 13 12 11 10 10 9 8 8 7 7 6 6 6 5 5 4 4 4
5 5 10 6 2 7 13 16 16 17 17 15 15 14 13 13 13 13 12 12 13 13 13 12 12 12 11 11 12 11 10 10 9 9 8 8 7 7 6 5 5 4 4 4
4 7 10 8 4 6 7 9 10 14 15 14 11 10 10 9 11 12 11 10 10 10 10 10 11 12 12 12 12 11 11 11 10 10 9 9 8 8 6 6 5 5 4 4
6 6 6 3 1 3 3 6 3 6 8 7 4 5 4 4 5 6 6 6 6 6 8 9 10 12 12 12 12 12 11 11 10 10 10 9 8 8 6 6 6 5 5 4
10 9 8 4 1 5 5 3 2 3 5 5 5 6 6 6 5 3 2 2 4 6 7 8 10 12 12 11 12 10 10 10 10 10 9 9 8 7 7 6 6 6 5 5
7 8 7 2 5 5 4 4 4 5 5 5 6 7 6 5 3 1 0 2 4 5 6 7 9 11 10 10 9 9 10 10 10 9 8 8 8 8 8 8 7 7 6 6
6 6 3 1 5 5 5 6 6 6 6 5 5 5 4 4 3 2 1 2 3 4 5 6 8 9 9 8 9 10 10 10 9 9 9 9 9 9 8 8 7 7 6 6
8 9 9 9 9 8 7 8 8 8 8 6 6 6 5 4 3 2 2 3 3 5 5 6 7 8 7 8 9 10 10 10 9 9 9 8 8 8 8 8 8 7 7 7
10 11 11 7 6 9 9 8 8 9 8 7 6 6 5 4 4 3 2 3 4 5 5 6 6 7 7 8 10 10 10 9 9 9 9 9 8 8 9 9 9 9 8 7
8 8 8 11 11 12 12 11 9 9 8 6 6 6 5 4 3 3 3 3 4 4 5 5 6 7 7 9 10 10 9 9 8 8 8 8 8 7 10 10 12 14 11 9
11 12 13 15 14 12 11 11 9 8 8 7 6 5 4 4 3 3 3 4 4 5 5 5 6 7 7 8 9 10 9 9 8 8 8 8 8 8 7 9 12 15 16 15
12 12 12 11 11 11 10 9 8 6 6 5 4 3 3 2 2 3 3 4 4 4 4 5 5 6 6 8 9 10 9 9 9 8 8 8 8 8 7 7 7 8 12 17
10 9 11 12 11 10 8 7 6 5 4 3 2 2 2 2 3 2 2 2 3 3 4 4 5 5 5 7 8 9 8 7 7 7 7 8 8 8 7 8 8 7 6 9
11 11 10 10 10 9 7 6 6 5 4 3 2 2 2 2 2 1 1 1 2 3 3 4 5 4 5 7 7 7 7 9 9 7 7 7 7 8 8 8 8 8 8 8
9 9 8 9 9 8 7 5 5 4 3 3 2 2 1 1 1 1 1 1 2 3 2 3 4 3 4 6 7 6 6 7 11 8 7 8 8 9 9 9 9 9 9 9
8 9 9 9 8 8 6 4 3 2 2 2 1 0 1 1 1 1 2 2 2 2 2 2 3 3 4 6 6 5 5 6 7 7 7 7 8 8 8 9 9 10 8 9
8 7 7 6 5 4 3 2 1 1 1 1 0 0 0 1 1 2 1 1 1 2 3 3 3 3 4 5 5 5 5 6 6 7 7 9 9 8 8 8 9 9 8 8
7 6 5 5 4 3 2 2 2 1 1 1 1 1 1 1 2 2 1 1 1 2 4 4 3 3 3 4 5 5 6 6 6 6 7 7 8 8 8 9 9 9 8 8
7 6 4 3 3 3 2 2 1 1 2 1 1 1 1 2 2 2 2 2 2 3 4 4 3 3 3 3 5 4 5 6 6 6 7 7 7 8 8 8 9 9 9 9
5 5 4 3 2 2 2 2 1 1 1 1 1 1 2 2 2 2 2 2 3 5 4 3 3 4 4 4 3 4 4 5 5 5 6 7 7 8 8 8 8 8 8 9
5 4 4 3 2 2 2 2 2 2 2 2 2 2 2 3 2 2 2 2 3 5 4 3 5 6 6 3 3 4 4 5 5 5 6 6 7 7 7 8 8 8 8 8
5 4 4 3 2 3 3 3 2 2 2 3 3 3 3 3 2 2 3 4 5 5 3 4 6 6 5 3 3 3 4 4 5 5 6 6 6 6 7 7 8 7 8 9
5 4 4 4 4 4 4 3 3 3 3 3 3 3 2 2 3 3 3 4 5 5 4 5 6 6 4 3 3 3 4 4 5 5 5 5 6 6 7 7 7 7 7 7
5 4 4 5 4 4 3 3 3 3 3 3 3 2 2 2 3 3 3 3 4 5 4 3 4 4 3 3 4 4 4 5 5 5 6 6 7 7 7 7 8 7 7 7
5 4 4 4 4 4 3 4 4 4 4 4 3 3 2 2 2 2 3 3 3 3 3 3 3 3 4 4 4 4 4 4 5 5 5 6 6 6 7 8 7 7 7 7
Wind_Direction
258 260 238 237 232 222 223 233 245 256 260 264 269 273 275 273 266 255 235 219 210 206 201 196 193 191 188 183 179 176 177 179 176 170 162 158 156 149 140 132 124 121 117 112
258 251 247 253 247 238 238 241 247 259 266 269 274 274 270 266 259 250 240 228 218 212 207 202 198 194 189 187 182 179 181 180 172 171 169 168 164 157 149 141 136 130 123 121
260 261 259 255 244 235 233 233 239 251 261 273 273 269 267 266 258 251 245 235 224 216 211 207 202 195 192 187 178 181 183 178 174 175 175 172 167 163 160 154 146 137 131 128
260 245 244 257 228 237 242 249 244 252 266 274 277 283 280 271 261 255 248 239 229 220 213 207 197 191 185 177 178 181 182 180 178 178 177 174 172 170 166 161 155 148 141 138
241 252 269 273 243 213 228 262 253 253 265 275 286 288 274 263 257 254 253 244 233 219 207 195 187 180 175 176 180 183 186 184 182 181 179 178 179 175 171 168 161 159 155 153
237 251 258 279 177 182 218 261 258 249 269 285 277 271 294 341 306 271 257 244 222 199 186 182 178 172 175 179 183 190 188 184 181 182 183 183 180 175 173 172 170 167 165 171
239 249 262 280 174 162 225 292 351 276 281 279 253 272 314 324 320 305 263 214 182 174 176 176 170 172 180 184 192 188 178 176 178 182 184 181 176 174 172 174 173 176 177 183
227 236 250 154 153 206 280 329 306 296 294 284 274 283 292 303 310 304 194 156 165 166 164 163 170 177 185 191 183 171 170 174 179 181 179 176 175 175 177 178 182 186 190 195
236 249 311 232 239 278 298 291 298 301 298 289 283 286 285 284 281 259 218 177 170 169 161 167 179 186 192 185 171 169 173 178 180 181 181 178 180 180 181 188 193 195 199 205
264 268 281 288 285 289 286 279 289 293 292 284 279 281 276 273 265 244 216 194 181 177 181 186 189 195 194 176 172 174 180 181 181 183 184 184 187 189 192 195 199 202 205 210
268 282 294 287 302 309 303 294 295 296 286 277 278 279 272 265 256 245 225 205 197 200 202 199 191 195 188 179 177 182 185 185 186 189 188 190 197 201 203 208 207 205 208 209
268 292 294 294 305 308 303 295 291 289 286 282 271 273 274 265 254 237 225 210 207 211 212 205 197 197 191 185 185 186 187 189 190 190 191 195 199 207 217 220 220 222 221 216
277 290 288 288 292 292 291 291 290 282 277 279 281 274 270 268 251 225 221 219 220 220 216 209 203 202 194 188 189 193 195 192 191 192 194 198 201 204 209 217 224 227 226 224
284 284 281 284 289 295 294 292 289 284 279 273 274 274 265 256 242 230 234 233 226 218 214 211 208 208 196 190 194 200 201 197 195 198 199 201 203 206 207 207 209 218 224 225
295 290 283 287 288 290 290 284 279 274 274 276 276 268 259 247 245 248 248 233 211 211 215 214 216 214 195 192 197 201 201 201 201 201 201 204 204 205 208 211 216 217 211 218
306 300 292 290 289 292 292 283 274 273 272 273 273 268 266 258 259 267 251 217 217 226 224 222 228 225 200 197 201 204 208 206 199 200 201 203 205 207 210 213 216 218 220 216
302 302 304 301 299 298 293 287 281 278 277 278 282 282 253 206 207 279 299 274 253 247 238 239 246 234 209 205 206 208 208 207 204 205 208 207 208 212 214 215 217 221 224 218
293 290 291 289 290 292 296 299 293 289 293 298 295 210 208 228 260 289 300 290 266 250 260 266 263 241 224 216 214 213 210 209 206 210 211 212 215 216 219 221 223 226 229 223
318 313 311 308 304 298 303 312 322 347 4 20 44 332 320 324 320 311 302 282 277 280 302 295 277 245 235 227 219 218 215 214 214 215 215 219 220 220 221 224 227 228 228 222
327 330 336 343 353 356 355 3 17 25 20 19 41 46 12 344 330 313 284 267 293 306 317 312 287 261 251 238 226 224 221 221 222 221 219 222 225 225 226 228 230 231 230 229
322 324 329 341 353 3 2 358 5 1 356 0 349 329 320 322 318 299 275 277 323 327 316 308 296 283 268 259 236 234 228 227 227 227 225 226 230 232 232 232 233 233 234 235
309 311 312 320 332 339 345 344 335 322 327 335 329 317 311 313 316 302 271 287 316 321 317 306 304 304 299 274 249 245 242 240 239 237 235 234 234 236 236 236 237 237 237 238
297 295 293 289 292 301 310 311 299 294 295 297 298 298 297 299 300 289 293 312 314 316 312 303 310 309 304 279 256 249 250 249 248 247 247 245 244 244 245 245 245 244 243 242
293 291 285 277 270 274 284 288 285 279 277 281 279 278 280 286 288 274 285 306 316 315 309 313 317 314 307 291 276 266 262 260 259 258 258 257 255 252 252 252 252 251 250 248
281 280 277 266 261 262 265 268 273 269 267 269 273 271 265 262 271 294 302 305 312 314 309 315 321 321 312 297 290 285 282 277 276 274 268 266 264 262 261 259 258 258 256 254
276 275 271 266 263 265 263 258 258 260 261 268 274 267 259 260 268 278 286 297 305 309 310 313 317 318 313 304 294 290 288 289 287 282 277 275 271 268 266 265 265 263 262 260
272 269 269 270 264 254 252 252 255 260 254 254 268 267 263 267 271 280 289 296 302 304 304 305 308 310 309 306 301 297 293 289 287 284 281 278 277 274 272 270 269 267 266 264
Height
1496 1496 1497 1495 1495 1496 1497 1493 1490 1480 1477 1473 1474 1475 1475 1476 1476 1477 1477 1477 1478 1480 1482 1485 1487 1490 1492 1494 1496 1497 1498 1498 1499 1499 1498 1498 1498 1498 1498 1498 1498 1497 1497 1497
1495 1494 1494 1493 1489 1489 1488 1486 1483 1480 1474 1470 1472 1473 1472 1472 1472 1472 1472 1473 1474 1476 1478 1480 1483 1486 1488 1490 1492 1493 1494 1494 1495 1495 1495 1495 1495 1495 1495 1495 1495 1495 1495 1495
1491 1491 1492 1486 1478 1479 1479 1477 1477 1474 1468 1467 1468 1468 1468 1468 1467 1467 1467 1468 1469 1470 1473 1475 1478 1481 1483 1486 1487 1489 1490 1490 1491 1491 1491 1491 1491 1492 1492 1492 1493 1493 1493 1493
1490 1492 1490 1473 1474 1474 1473 1471 1471 1469 1466 1466 1465 1465 1464 1463 1462 1461 1462 1462 1464 1466 1468 1471 1474 1476 1479 1481 1483 1484 1485 1486 1487 1487 1488 1488 1488 1489 1489 1490 1490 1491 1491 1492
1490 1484 1475 1470 1471 1473 1472 1467 1466 1465 1464 1463 1463 1462 1458 1457 1456 1456 1457 1458 1459 1461 1463 1466 1469 1471 1474 1476 1478 1479 1481 1482 1483 1483 1484 1484 1485 1486 1487 1487 1488 1489 1489 1490
1488 1483 1475 1467 1469 1470 1472 1465 1463 1463 1462 1462 1461 1458 1454 1454 1453 1452 1453 1454 1455 1457 1459 1462 1464 1467 1469 1471 1473 1475 1476 1478 1479 1480 1480 1481 1482 1483 1484 1485 1486 1487 1487 1488
1484 1480 1468 1467 1469 1471 1470 1463 1463 1462 1461 1460 1459 1457 1455 1453 1451 1450 1450 1451 1452 1454 1456 1458 1461 1463 1465 1467 1469 1471 1473 1474 1475 1476 1477 1478 1479 1480 1482 1483 1484 1485 1485 1486
1477 1476 1470 1466 1468 1468 1464 1463 1462 1461 1460 1458 1456 1455 1453 1451 1450 1449 1449 1449 1450 1452 1454 1456 1458 1460 1461 1463 1465 1467 1468 1470 1471 1472 1473 1474 1476 1477 1479 1480 1481 1482 1483 1484
1470 1467 1465 1465 1465 1464 1464 1463 1461 1460 1458 1457 1455 1453 1452 1451 1450 1449 1449 1449 1449 1451 1452 1453 1455 1457 1458 1460 1462 1463 1465 1466 1467 1469 1470 1471 1473 1474 1476 1477 1478 1479 1480 1481
1470 1464 1464 1464 1463 1462 1462 1460 1459 1458 1456 1455 1453 1451 1450 1449 1449 1448 1448 1448 1448 1449 1450 1451 1452 1454 1455 1456 1458 1459 1461 1462 1463 1465 1466 1467 1469 1471 1472 1473 1474 1476 1477 1478
1468 1464 1463 1460 1461 1460 1459 1457 1456 1455 1453 1452 1451 1449 1449 1448 1447 1447 1447 1447 1447 1447 1448 1449 1449 1450 1451 1452 1454 1455 1457 1458 1459 1461 1462 1464 1465 1467 1468 1470 1471 1473 1474 1475
1464 1464 1464 1460 1459 1457 1456 1454 1452 1451 1450 1449 1448 1447 1446 1445 1445 1445 1445 1444 1445 1445 1445 1445 1446 1447 1448 1449 1450 1451 1452 1453 1455 1456 1458 1460 1461 1463 1464 1466 1467 1468 1470 1471
1464 1462 1460 1457 1455 1453 1451 1449 1448 1447 1446 1445 1445 1444 1443 1443 1442 1442 1442 1442 1442 1442 1442 1442 1442 1443 1444 1445 1446 1447 1448 1449 1451 1452 1454 1455 1457 1458 1460 1462 1463 1464 1465 1466
1460 1458 1454 1452 1451 1449 1447 1445 1444 1443 1442 1442 1441 1441 1440 1440 1439 1439 1439 1438 1438 1438 1438 1439 1439 1439 1440 1441 1442 1443 1444 1445 1446 1448 1449 1451 1453 1454 1455 1457 1458 1458 1460 1461
1454 1453 1450 1447 1445 1444 1442 1441 1440 1439 1438 1438 1437 1437 1437 1437 1436 1436 1436 1435 1435 1435 1435 1435 1435 1436 1436 1437 1437 1438 1439 1440 1442 1443 1445 1446 1448 1449 1450 1451 1452 1454 1455 1456
1450 1448 1445 1443 1441 1440 1438 1437 1436 1435 1435 1434 1434 1434 1434 1433 1433 1433 1433 1432 1432 1432 1432 1431 1431 1432 1432 1432 1433 1434 1435 1436 1437 1438 1440 1441 1442 1443 1445 1446 1447 1448 1449 1450
1447 1444 1441 1439 1438 1436 1435 1434 1433 1432 1432 1431 1431 1431 1430 1430 1430 1430 1430 1429 1429 1429 1428 1428 1428 1428 1428 1428 1428 1429 1430 1431 1432 1433 1434 1435 1436 1438 1439 1440 1440 1441 1443 1444
1444 1441 1439 1437 1435 1433 1432 1431 1430 1430 1429 1429 1429 1428 1428 1427 1427 1427 1427 1426 1426 1425 1425 1424 1424 1424 1424 1424 1424 1425 1425 1426 1426 1427 1428 1429 1430 1431 1432 1433 1434 1435 1436 1437
1441 1438 1436 1434 1432 1431 1429 1429 1428 1428 1427 1427 1427 1426 1426 1425 1425 1424 1424 1423 1423 1422 1422 1421 1420 1420 1420 1420 1420 1420 1420 1421 1421 1422 1422 1423 1424 1425 1426 1426 1427 1428 1428 1429
1439 1436 1434 1432 1430 1429 1428 1427 1426 1426 1426 1425 1425 1424 1424 1423 1423 1422 1421 1420 1420 1419 1418 1418 1417 1416 1416 1416 1415 1415 1416 1416 1416 1416 1417 1417 1418 1418 1419 1419 1420 1420 1421 1421
1438 1435 1433 1431 1429 1428 1427 1426 1425 1425 1425 1424 1424 1423 1422 1421 1421 1420 1419 1418 1417 1416 1415 1414 1413 1413 1412 1411 1411 1411 1411 1411 1411 1411 1411 1411 1411 1412 1412 1412 1412 1413 1413 1413
1436 1434 1432 1430 1429 1427 1426 1425 1425 1424 1424 1423 1422 1421 1420 1419 1418 1417 1416 1415 1414 1413 1412 1411 1410 1409 1408 1407 1407 1406 1406 1406 1405 1405 1405 1405 1405 1405 1405 1405 1405 1405 1405 1405
1434 1432 1431 1429 1428 1426 1425 1424 1424 1423 1422 1421 1421 1420 1419 1417 1416 1415 1414 1413 1411 1410 1409 1408 1406 1405 1404 1403 1403 1402 1401 1401 1400 1400 1399 1399 1399 1398 1398 1398 1397 1397 1397 1397
1432 1430 1429 1427 1426 1425 1424 1423 1422 1421 1420 1419 1419 1417 1416 1415 1414 1413 1411 1410 1408 1407 1406 1404 1403 1402 1400 1399 1398 1398 1397 1396 1395 1394 1394 1393 1392 1392 1391 1390 1390 1389 1389 1389
1429 1427 1426 1425 1423 1422 1421 1420 1419 1419 1418 1417 1416 1415 1414 1412 1411 1410 1408 1407 1406 1404 1402 1401 1399 1398 1397 1395 1394 1393 1392 1391 1390 1389 1388 1387 1386 1385 1384 1383 1383 1382 1381 1381
1425 1424 1423 1422 1420 1419 1418 1417 1416 1415 1414 1413 1413 1412 1411 1409 1408 1407 1405 1404 1402 1401 1399 1398 1396 1394 1393 1391 1390 1389 1387 1386 1385 1383 1382 1381 1379 1378 1377 1376 1376 1375 1374 1374
1422 1420 1419 1418 1417 1416 1415 1414 1413 1412 1411 1410 1409 1408 1407 1406 1404 1403 1402 1401 1399 1397 1396 1394 1392 1391 1389 1387 1386 1384 1382 1381 1379 1378 1376 1375 1373 1372 1371 1370 1369 1368 1367 1367